Time,TemperatureF,DewpointF,PressureIn,WindDirection,WindDirectionDegrees,WindSpeedMPH,WindSpeedGustMPH,Humidity,HourlyPrecipIn,Conditions,Clouds,dailyrainin,SoftwareType,DateUTC
2013-06-24 00:01:00,67.6,66.1,29.68,West,267,0.0,0.0,95,0.00,,OVC009,0.00,VWS V14.01,2013-06-24 05:01:00,
2013-06-24 00:06:00,67.6,66.4,29.68,West,267,0.0,0.0,96,0.00,,OVC009,0.00,VWS V14.01,2013-06-24 05:06:00,
2013-06-24 00:11:00,67.6,66.1,29.68,West,267,0.0,0.0,95,0.00,,OVC009,0.00,VWS V14.01,2013-06-24 05:11:00,
2013-06-24 00:16:00,67.3,65.8,29.68,West,267,0.0,0.0,95,0.00,,OVC009,0.00,VWS V14.01,2013-06-24 05:16:00,
2013-06-24 00:21:00,67.1,65.9,29.68,West,267,0.0,0.0,96,0.00,,OVC009,0.00,VWS V14.01,2013-06-24 05:21:00,
2013-06-24 00:26:00,67.1,65.9,29.68,West,267,0.0,0.0,96,0.00,,OVC009,0.00,VWS V14.01,2013-06-24 05:26:00,
2013-06-24 00:31:00,67.3,66.4,29.67,West,267,0.0,0.0,97,0.00,,OVC009,0.00,VWS V14.01,2013-06-24 05:31:00,
2013-06-24 00:37:00,67.3,66.4,29.67,West,267,0.0,0.0,97,0.00,,OVC009,0.00,VWS V14.01,2013-06-24 05:37:00,
2013-06-24 00:42:00,67.3,66.4,29.67,West,267,0.0,0.0,97,0.00,,OVC009,0.00,VWS V14.01,2013-06-24 05:42:00,
2013-06-24 00:47:00,67.3,66.4,29.67,West,267,0.0,0.0,97,0.00,,OVC009,0.00,VWS V14.01,2013-06-24 05:47:00,
2013-06-24 00:52:00,67.1,66.2,29.67,West,267,0.0,0.0,97,0.00,,OVC009,0.00,VWS V14.01,2013-06-24 05:52:00,
2013-06-24 00:57:00,67.1,66.2,29.67,West,267,0.0,0.0,97,0.00,,OVC009,0.00,VWS V14.01,2013-06-24 05:57:00,
2013-06-24 01:02:00,67.1,66.2,29.67,West,267,0.0,0.0,97,0.00,,OVC009,0.00,VWS V14.01,2013-06-24 06:02:00,
2013-06-24 01:07:00,66.9,65.7,29.67,West,267,0.0,0.0,96,0.00,,OVC009,0.00,VWS V14.01,2013-06-24 06:07:00,
2013-06-24 01:13:00,66.6,65.4,29.67,West,267,0.0,0.0,96,0.00,,OVC009,0.00,VWS V14.01,2013-06-24 06:13:00,
2013-06-24 01:18:00,66.6,65.7,29.67,West,267,0.0,0.0,97,0.00,,OVC009,0.00,VWS V14.01,2013-06-24 06:18:00,
2013-06-24 01:23:00,66.6,65.7,29.67,West,267,0.0,0.0,97,0.00,,OVC009,0.00,VWS V14.01,2013-06-24 06:23:00,
2013-06-24 01:28:00,66.6,65.7,29.67,West,267,0.0,0.0,97,0.00,,OVC009,0.00,VWS V14.01,2013-06-24 06:28:00,
2013-06-24 01:33:00,66.6,65.7,29.67,West,267,0.0,0.0,97,0.00,,OVC009,0.00,VWS V14.01,2013-06-24 06:33:00,
2013-06-24 01:38:00,66.6,65.4,29.67,West,267,0.0,0.0,96,0.00,,OVC009,0.00,VWS V14.01,2013-06-24 06:38:00,
2013-06-24 01:43:00,66.6,65.4,29.67,West,267,0.0,0.0,96,0.00,,OVC009,0.00,VWS V14.01,2013-06-24 06:43:00,
2013-06-24 01:48:00,66.4,65.2,29.67,West,267,0.0,0.0,96,0.00,,OVC009,0.00,VWS V14.01,2013-06-24 06:48:00,
2013-06-24 01:53:00,66.3,65.1,29.67,West,267,0.0,0.0,96,0.00,,OVC009,0.00,VWS V14.01,2013-06-24 06:53:00,
2013-06-24 01:58:00,66.3,65.1,29.67,West,267,0.0,0.0,96,0.00,,OVC009,0.00,VWS V14.01,2013-06-24 06:58:00,
2013-06-24 02:03:00,66.3,65.1,29.68,West,267,0.0,0.0,96,0.00,,OVC009,0.00,VWS V14.01,2013-06-24 07:03:00,
2013-06-24 02:08:00,66.3,65.1,29.68,West,267,0.0,0.0,96,0.00,,OVC009,0.00,VWS V14.01,2013-06-24 07:08:00,
2013-06-24 02:13:00,66.1,64.9,29.68,West,267,0.0,0.0,96,0.00,,OVC009,0.00,VWS V14.01,2013-06-24 07:13:00,
2013-06-24 02:18:00,66.0,64.8,29.67,West,267,0.0,0.0,96,0.00,,OVC009,0.00,VWS V14.01,2013-06-24 07:18:00,
2013-06-24 02:23:00,66.0,65.1,29.67,West,267,0.0,0.0,97,0.00,,OVC009,0.00,VWS V14.01,2013-06-24 07:23:00,
2013-06-24 02:29:00,65.6,64.4,29.67,West,267,0.0,0.0,96,0.00,,OVC009,0.00,VWS V14.01,2013-06-24 07:29:00,
2013-06-24 02:34:00,65.6,64.7,29.67,West,267,0.0,0.0,97,0.00,,OVC009,0.00,VWS V14.01,2013-06-24 07:34:00,
2013-06-24 02:39:00,65.5,64.6,29.67,West,267,0.0,0.0,97,0.00,,OVC009,0.00,VWS V14.01,2013-06-24 07:39:00,
2013-06-24 02:44:00,65.5,64.6,29.67,West,267,0.0,0.0,97,0.00,,OVC009,0.00,VWS V14.01,2013-06-24 07:44:00,
2013-06-24 02:49:00,65.3,64.4,29.67,West,267,0.0,0.0,97,0.00,,OVC009,0.00,VWS V14.01,2013-06-24 07:49:00,
2013-06-24 02:54:00,65.3,64.4,29.67,SW,235,1.0,1.0,97,0.00,,OVC009,0.00,VWS V14.01,2013-06-24 07:54:00,
2013-06-24 02:59:00,65.3,64.4,29.67,SW,235,0.0,1.0,97,0.00,,OVC009,0.00,VWS V14.01,2013-06-24 07:59:00,
2013-06-24 03:04:00,65.2,64.3,29.67,SW,235,0.0,0.0,97,0.00,,OVC009,0.00,VWS V14.01,2013-06-24 08:04:00,
2013-06-24 03:09:00,65.0,64.1,29.67,SW,235,0.0,0.0,97,0.00,,OVC009,0.00,VWS V14.01,2013-06-24 08:09:00,
2013-06-24 03:14:00,65.2,64.3,29.67,SW,235,0.0,0.0,97,0.00,,OVC009,0.00,VWS V14.01,2013-06-24 08:14:00,
2013-06-24 03:19:00,65.2,64.3,29.67,SW,235,0.0,0.0,97,0.00,,OVC009,0.00,VWS V14.01,2013-06-24 08:19:00,
2013-06-24 03:25:00,65.2,64.3,29.67,SW,235,0.0,0.0,97,0.00,,OVC009,0.00,VWS V14.01,2013-06-24 08:25:00,
2013-06-24 03:30:00,65.2,64.3,29.67,SW,235,0.0,0.0,97,0.00,,OVC009,0.00,VWS V14.01,2013-06-24 08:30:00,
2013-06-24 03:35:00,64.8,63.9,29.67,SW,235,0.0,0.0,97,0.00,,OVC009,0.00,VWS V14.01,2013-06-24 08:35:00,
2013-06-24 03:40:00,64.7,63.8,29.67,SW,235,0.0,0.0,97,0.00,,OVC009,0.00,VWS V14.01,2013-06-24 08:40:00,
2013-06-24 03:45:00,64.7,64.1,29.66,SW,235,0.0,0.0,98,0.00,,OVC009,0.00,VWS V14.01,2013-06-24 08:45:00,
2013-06-24 03:50:00,64.8,64.2,29.66,SW,235,0.0,0.0,98,0.00,,OVC009,0.00,VWS V14.01,2013-06-24 08:50:00,
2013-06-24 03:55:00,64.8,64.2,29.66,SW,235,0.0,0.0,98,0.00,,OVC009,0.00,VWS V14.01,2013-06-24 08:55:00,
2013-06-24 04:00:00,64.8,64.2,29.66,SW,235,0.0,0.0,98,0.00,,OVC009,0.00,VWS V14.01,2013-06-24 09:00:00,
2013-06-24 04:05:00,64.8,64.2,29.66,SW,235,0.0,0.0,98,0.00,,OVC009,0.00,VWS V14.01,2013-06-24 09:05:00,
2013-06-24 04:11:00,64.8,64.2,29.66,SW,235,0.0,0.0,98,0.00,,OVC009,0.00,VWS V14.01,2013-06-24 09:11:00,
2013-06-24 04:16:00,64.7,64.1,29.67,SW,235,0.0,0.0,98,0.00,,OVC009,0.00,VWS V14.01,2013-06-24 09:16:00,
2013-06-24 04:21:00,64.5,63.9,29.67,SW,235,0.0,0.0,98,0.00,,OVC009,0.00,VWS V14.01,2013-06-24 09:21:00,
2013-06-24 04:26:00,64.2,63.3,29.67,SW,235,0.0,0.0,97,0.00,,OVC009,0.00,VWS V14.01,2013-06-24 09:26:00,
2013-06-24 04:31:00,64.0,63.4,29.66,SW,235,0.0,0.0,98,0.00,,OVC009,0.00,VWS V14.01,2013-06-24 09:31:00,
2013-06-24 04:36:00,63.9,63.3,29.66,SW,235,0.0,0.0,98,0.00,,OVC009,0.00,VWS V14.01,2013-06-24 09:36:00,
2013-06-24 04:41:00,63.7,63.1,29.66,SW,235,0.0,0.0,98,0.00,,OVC009,0.00,VWS V14.01,2013-06-24 09:41:00,
2013-06-24 04:46:00,63.7,63.1,29.66,SW,235,0.0,0.0,98,0.00,,OVC009,0.00,VWS V14.01,2013-06-24 09:46:00,
2013-06-24 04:51:00,63.7,63.1,29.66,SW,235,0.0,0.0,98,0.00,,OVC009,0.00,VWS V14.01,2013-06-24 09:51:00,
2013-06-24 04:56:00,63.7,63.1,29.66,SW,235,0.0,0.0,98,0.00,,OVC009,0.00,VWS V14.01,2013-06-24 09:56:00,
2013-06-24 05:02:00,63.7,63.1,29.67,SW,235,0.0,0.0,98,0.00,,OVC009,0.00,VWS V14.01,2013-06-24 10:02:00,
2013-06-24 05:07:00,63.7,63.1,29.67,SW,235,0.0,0.0,98,0.00,,OVC009,0.00,VWS V14.01,2013-06-24 10:07:00,
2013-06-24 05:12:00,63.7,63.1,29.67,SW,235,0.0,0.0,98,0.00,,OVC009,0.00,VWS V14.01,2013-06-24 10:12:00,
2013-06-24 05:17:00,63.9,63.3,29.67,SW,235,0.0,0.0,98,0.00,,OVC009,0.00,VWS V14.01,2013-06-24 10:17:00,
2013-06-24 05:22:00,63.7,63.1,29.67,SW,235,0.0,0.0,98,0.00,,OVC009,0.00,VWS V14.01,2013-06-24 10:22:00,
2013-06-24 05:27:00,63.9,63.6,29.67,SW,235,0.0,0.0,99,0.00,,OVC009,0.00,VWS V14.01,2013-06-24 10:27:00,
2013-06-24 05:32:00,64.0,63.7,29.67,SW,235,0.0,0.0,99,0.00,,OVC009,0.00,VWS V14.01,2013-06-24 10:32:00,
2013-06-24 05:37:00,63.7,63.4,29.67,SW,235,0.0,0.0,99,0.00,,OVC009,0.00,VWS V14.01,2013-06-24 10:37:00,
2013-06-24 05:42:00,63.7,63.4,29.67,SW,235,0.0,0.0,99,0.00,,OVC009,0.00,VWS V14.01,2013-06-24 10:42:00,
2013-06-24 05:47:00,63.7,63.7,29.67,SW,235,0.0,0.0,100,0.00,,OVC009,0.00,VWS V14.01,2013-06-24 10:47:00,
2013-06-24 05:52:00,63.4,62.8,29.67,SW,235,0.0,0.0,98,0.00,,OVC009,0.00,VWS V14.01,2013-06-24 10:52:00,
2013-06-24 05:58:00,63.4,62.8,29.67,SW,235,0.0,0.0,98,0.00,,OVC009,0.00,VWS V14.01,2013-06-24 10:58:00,
2013-06-24 06:03:00,63.4,62.8,29.67,SW,235,0.0,0.0,98,0.00,,OVC009,0.00,VWS V14.01,2013-06-24 11:03:00,
2013-06-24 06:08:00,63.7,63.1,29.67,SW,235,0.0,0.0,98,0.00,,OVC009,0.00,VWS V14.01,2013-06-24 11:08:00,
2013-06-24 06:14:00,63.7,63.1,29.67,SW,235,0.0,0.0,98,0.00,,OVC009,0.00,VWS V14.01,2013-06-24 11:14:00,
2013-06-24 06:19:00,64.3,64.0,29.68,SW,235,0.0,0.0,99,0.00,,OVC009,0.00,VWS V14.01,2013-06-24 11:19:00,
2013-06-24 06:24:00,64.7,64.4,29.68,SW,235,0.0,0.0,99,0.00,,OVC009,0.00,VWS V14.01,2013-06-24 11:24:00,
2013-06-24 06:29:00,64.8,64.5,29.68,SW,218,0.0,0.0,99,0.00,,OVC009,0.00,VWS V14.01,2013-06-24 11:29:00,
2013-06-24 06:34:00,64.8,64.5,29.69,SW,218,0.0,0.0,99,0.00,,OVC009,0.00,VWS V14.01,2013-06-24 11:34:00,
2013-06-24 06:39:00,65.0,65.0,29.69,SW,218,0.0,0.0,100,0.00,,OVC009,0.00,VWS V14.01,2013-06-24 11:39:00,
2013-06-24 06:44:00,65.6,65.6,29.69,SW,218,0.0,0.0,100,0.00,,OVC009,0.00,VWS V14.01,2013-06-24 11:44:00,
2013-06-24 06:49:00,66.4,66.4,29.68,SW,218,0.0,0.0,100,0.00,,OVC009,0.00,VWS V14.01,2013-06-24 11:49:00,
2013-06-24 06:54:00,66.9,66.9,29.68,SW,216,0.0,0.0,100,0.00,,OVC009,0.00,VWS V14.01,2013-06-24 11:54:00,
2013-06-24 06:59:00,67.3,67.3,29.68,SW,216,0.0,0.0,100,0.00,,OVC009,0.00,VWS V14.01,2013-06-24 11:59:00,
2013-06-24 07:04:00,67.6,67.6,29.69,SW,216,0.0,0.0,100,0.00,,OVC009,0.00,VWS V14.01,2013-06-24 12:04:00,
2013-06-24 07:09:00,67.9,67.6,29.69,SW,216,0.0,0.0,99,0.00,,OVC009,0.00,VWS V14.01,2013-06-24 12:09:00,
2013-06-24 07:14:00,68.4,68.1,29.68,SW,216,0.0,0.0,99,0.00,,OVC009,0.00,VWS V14.01,2013-06-24 12:14:00,
2013-06-24 07:20:00,68.8,68.5,29.68,SW,216,0.0,0.0,99,0.00,,OVC009,0.00,VWS V14.01,2013-06-24 12:20:00,
2013-06-24 07:25:00,69.1,68.5,29.68,SW,216,0.0,0.0,98,0.00,,OVC009,0.00,VWS V14.01,2013-06-24 12:25:00,
2013-06-24 07:30:00,69.3,68.4,29.68,SW,216,0.0,0.0,97,0.00,,OVC009,0.00,VWS V14.01,2013-06-24 12:30:00,
2013-06-24 07:35:00,69.6,68.7,29.68,SW,216,0.0,0.0,97,0.00,,OVC009,0.00,VWS V14.01,2013-06-24 12:35:00,
2013-06-24 07:40:00,69.8,68.6,29.68,SW,216,0.0,0.0,96,0.00,,OVC009,0.00,VWS V14.01,2013-06-24 12:40:00,
2013-06-24 07:45:00,69.9,68.4,29.67,SW,215,1.0,1.0,95,0.00,,OVC009,0.00,VWS V14.01,2013-06-24 12:45:00,
2013-06-24 07:50:00,70.4,68.6,29.67,South,188,1.0,2.0,94,0.00,,OVC009,0.00,VWS V14.01,2013-06-24 12:50:00,
2013-06-24 07:55:00,70.8,69.0,29.67,South,177,1.0,2.0,94,0.00,,OVC009,0.00,VWS V14.01,2013-06-24 12:55:00,
2013-06-24 08:01:00,70.9,68.8,29.65,South,174,0.0,0.0,93,0.00,,OVC009,0.00,VWS V14.01,2013-06-24 13:01:00,
2013-06-24 08:06:00,71.3,68.9,29.65,SE,137,0.0,2.0,92,0.00,,OVC009,0.00,VWS V14.01,2013-06-24 13:06:00,
2013-06-24 08:11:00,71.6,68.8,29.65,SE,126,4.0,8.0,91,0.00,,OVC009,0.00,VWS V14.01,2013-06-24 13:11:00,
2013-06-24 08:16:00,72.0,69.2,29.65,SE,126,2.0,8.0,91,0.00,,OVC009,0.00,VWS V14.01,2013-06-24 13:16:00,
2013-06-24 08:21:00,72.5,68.8,29.65,SE,125,2.0,8.0,88,0.00,,OVC009,0.00,VWS V14.01,2013-06-24 13:21:00,
2013-06-24 08:26:00,73.0,68.9,29.65,ESE,123,0.0,8.0,87,0.00,,OVC009,0.00,VWS V14.01,2013-06-24 13:26:00,
2013-06-24 08:31:00,73.7,68.9,29.65,ESE,123,0.0,1.0,85,0.00,,OVC009,0.00,VWS V14.01,2013-06-24 13:31:00,
2013-06-24 08:36:00,74.0,68.5,29.65,ESE,122,3.0,7.0,83,0.00,,OVC009,0.00,VWS V14.01,2013-06-24 13:36:00,
2013-06-24 08:41:00,74.4,68.6,29.65,ESE,115,2.0,8.0,82,0.00,,OVC009,0.00,VWS V14.01,2013-06-24 13:41:00,
2013-06-24 08:46:00,74.9,69.0,29.65,ESE,113,5.0,8.0,82,0.00,,OVC009,0.00,VWS V14.01,2013-06-24 13:46:00,
2013-06-24 08:51:00,75.3,68.7,29.65,ESE,112,6.0,8.0,80,0.00,,OVC009,0.00,VWS V14.01,2013-06-24 13:51:00,
2013-06-24 08:56:00,75.4,67.7,29.65,ESE,112,7.0,8.0,77,0.00,,OVC009,0.00,VWS V14.01,2013-06-24 13:56:00,
2013-06-24 09:02:00,75.6,67.5,29.66,ESE,112,2.0,4.0,76,0.00,,OVC009,0.00,VWS V14.01,2013-06-24 14:02:00,
2013-06-24 09:07:00,75.8,67.7,29.66,ESE,112,8.0,8.0,76,0.00,,OVC009,0.00,VWS V14.01,2013-06-24 14:07:00,
2013-06-24 09:12:00,76.0,67.9,29.66,ESE,112,5.0,8.0,76,0.00,,OVC009,0.00,VWS V14.01,2013-06-24 14:12:00,
2013-06-24 09:17:00,76.5,68.8,29.67,ESE,112,1.0,8.0,77,0.00,,OVC009,0.00,VWS V14.01,2013-06-24 14:17:00,
2013-06-24 09:22:00,76.8,69.1,29.67,SE,127,5.0,8.0,77,0.00,,OVC009,0.00,VWS V14.01,2013-06-24 14:22:00,
2013-06-24 09:27:00,77.0,69.2,29.67,SE,126,2.0,8.0,77,0.00,,OVC009,0.00,VWS V14.01,2013-06-24 14:27:00,
2013-06-24 09:32:00,77.4,68.9,29.67,ESE,123,3.0,5.0,75,0.00,,OVC009,0.00,VWS V14.01,2013-06-24 14:32:00,
2013-06-24 09:37:00,77.6,69.1,29.67,ESE,122,7.0,7.0,75,0.00,,OVC009,0.00,VWS V14.01,2013-06-24 14:37:00,
2013-06-24 09:42:00,77.6,69.4,29.67,ESE,118,5.0,7.0,76,0.00,,OVC009,0.00,VWS V14.01,2013-06-24 14:42:00,
2013-06-24 09:47:00,77.9,68.9,29.67,ESE,116,2.0,8.0,74,0.00,,OVC009,0.00,VWS V14.01,2013-06-24 14:47:00,
2013-06-24 09:53:00,78.3,69.7,29.67,ESE,113,3.0,8.0,75,0.00,,OVC009,0.00,VWS V14.01,2013-06-24 14:53:00,
2013-06-24 09:58:00,78.3,68.9,29.67,SE,140,8.0,10.0,73,0.00,,OVC009,0.00,VWS V14.01,2013-06-24 14:58:00,
2013-06-24 10:03:00,78.3,68.1,29.67,ESE,123,7.0,11.0,71,0.00,,OVC009,0.00,VWS V14.01,2013-06-24 15:03:00,
2013-06-24 10:08:00,78.5,69.1,29.67,ESE,115,2.0,11.0,73,0.00,,OVC009,0.00,VWS V14.01,2013-06-24 15:08:00,
2013-06-24 10:13:00,78.6,68.8,29.67,ESE,103,6.0,11.0,72,0.00,,OVC009,0.00,VWS V14.01,2013-06-24 15:13:00,
2013-06-24 10:18:00,78.5,68.7,29.67,ESE,116,6.0,11.0,72,0.00,,OVC009,0.00,VWS V14.01,2013-06-24 15:18:00,
2013-06-24 10:23:00,78.3,68.9,29.67,ESE,106,7.0,11.0,73,0.00,,OVC009,0.00,VWS V14.01,2013-06-24 15:23:00,
2013-06-24 10:28:00,78.3,69.7,29.67,ESE,108,7.0,11.0,75,0.00,,OVC009,0.00,VWS V14.01,2013-06-24 15:28:00,
2013-06-24 10:33:00,78.5,69.1,29.67,ESE,108,11.0,11.0,73,0.00,,OVC009,0.00,VWS V14.01,2013-06-24 15:33:00,
2013-06-24 10:38:00,78.3,69.3,29.67,ESE,106,2.0,11.0,74,0.00,,OVC009,0.00,VWS V14.01,2013-06-24 15:38:00,
2013-06-24 10:43:00,78.6,69.2,29.67,ESE,105,7.0,11.0,73,0.00,,OVC009,0.00,VWS V14.01,2013-06-24 15:43:00,
2013-06-24 10:48:00,78.6,69.6,29.67,East,101,2.0,11.0,74,0.00,,OVC009,0.00,VWS V14.01,2013-06-24 15:48:00,
2013-06-24 10:54:00,78.8,69.4,29.67,ESE,110,5.0,11.0,73,0.00,,OVC009,0.00,VWS V14.01,2013-06-24 15:54:00,
2013-06-24 10:59:00,79.0,69.2,29.67,ESE,110,5.0,11.0,72,0.00,,OVC009,0.00,VWS V14.01,2013-06-24 15:59:00,
2013-06-24 11:04:00,79.0,70.0,29.66,ESE,106,7.0,10.0,74,0.00,,OVC009,0.00,VWS V14.01,2013-06-24 16:04:00,
2013-06-24 11:09:00,79.6,69.8,29.66,ESE,105,6.0,10.0,72,0.00,,OVC009,0.00,VWS V14.01,2013-06-24 16:09:00,
2013-06-24 11:14:00,79.6,70.2,29.65,ESE,112,2.0,11.0,73,0.00,,OVC009,0.00,VWS V14.01,2013-06-24 16:14:00,
2013-06-24 11:19:00,80.3,69.6,29.65,ESE,102,6.0,11.0,70,0.00,,OVC009,0.00,VWS V14.01,2013-06-24 16:19:00,
2013-06-24 11:24:00,80.3,69.6,29.65,ESE,110,7.0,13.0,70,0.00,,OVC009,0.00,VWS V14.01,2013-06-24 16:24:00,
2013-06-24 11:29:00,79.9,69.7,29.65,SE,136,6.0,13.0,71,0.00,,OVC009,0.00,VWS V14.01,2013-06-24 16:29:00,
2013-06-24 11:34:00,79.8,68.7,29.65,ESE,119,4.0,13.0,69,0.00,,OVC009,0.00,VWS V14.01,2013-06-24 16:34:00,
2013-06-24 11:39:00,79.9,69.7,29.65,East,98,3.0,15.0,71,0.00,,OVC009,0.00,VWS V14.01,2013-06-24 16:39:00,
2013-06-24 11:45:00,80.1,69.4,29.66,SE,129,9.0,15.0,70,0.00,,OVC009,0.00,VWS V14.01,2013-06-24 16:45:00,
2013-06-24 11:50:00,79.9,69.2,29.66,ESE,113,12.0,15.0,70,0.00,,OVC009,0.00,VWS V14.01,2013-06-24 16:50:00,
2013-06-24 11:55:00,79.9,69.2,29.66,SE,126,3.0,15.0,70,0.00,,OVC009,0.00,VWS V14.01,2013-06-24 16:55:00,
2013-06-24 12:00:00,80.3,68.8,29.65,SE,130,8.0,8.0,68,0.00,,OVC009,0.00,VWS V14.01,2013-06-24 17:00:00,
2013-06-24 12:05:00,80.5,68.5,29.65,ESE,113,7.0,10.0,67,0.00,,OVC009,0.00,VWS V14.01,2013-06-24 17:05:00,
2013-06-24 12:11:00,80.3,68.8,29.65,ESE,105,4.0,12.0,68,0.00,,OVC009,0.00,VWS V14.01,2013-06-24 17:11:00,
2013-06-24 12:16:00,79.9,68.4,29.65,ESE,122,7.0,12.0,68,0.00,,OVC009,0.00,VWS V14.01,2013-06-24 17:16:00,
2013-06-24 12:21:00,79.8,69.6,29.65,ESE,113,1.0,12.0,71,0.00,,OVC009,0.00,VWS V14.01,2013-06-24 17:21:00,
2013-06-24 12:26:00,79.8,69.6,29.65,ESE,112,6.0,12.0,71,0.00,,OVC009,0.00,VWS V14.01,2013-06-24 17:26:00,
2013-06-24 12:31:00,79.6,69.0,29.65,ESE,113,6.0,11.0,70,0.00,,OVC009,0.00,VWS V14.01,2013-06-24 17:31:00,
2013-06-24 12:36:00,79.6,69.4,29.65,ESE,102,7.0,13.0,71,0.00,,OVC009,0.00,VWS V14.01,2013-06-24 17:36:00,
2013-06-24 12:41:00,79.2,69.8,29.65,SE,125,8.0,13.0,73,0.00,,OVC009,0.00,VWS V14.01,2013-06-24 17:41:00,
2013-06-24 12:46:00,78.8,69.8,29.64,ESE,115,3.0,13.0,74,0.00,,OVC009,0.00,VWS V14.01,2013-06-24 17:46:00,
2013-06-24 12:51:00,78.6,70.0,29.64,East,101,6.0,13.0,75,0.00,,OVC009,0.00,VWS V14.01,2013-06-24 17:51:00,
2013-06-24 12:56:00,78.6,70.0,29.64,ESE,110,6.0,13.0,75,0.00,,OVC009,0.00,VWS V14.01,2013-06-24 17:56:00,
2013-06-24 13:01:00,78.3,70.5,29.64,ESE,112,7.0,10.0,77,0.00,,OVC009,0.00,VWS V14.01,2013-06-24 18:01:00,
2013-06-24 13:06:00,78.1,70.7,29.64,SE,129,0.0,11.0,78,0.00,,OVC009,0.00,VWS V14.01,2013-06-24 18:06:00,
2013-06-24 13:11:00,77.9,70.9,29.64,SE,137,10.0,18.0,79,0.00,,OVC009,0.00,VWS V14.01,2013-06-24 18:11:00,
2013-06-24 13:17:00,76.7,70.4,29.65,SE,134,12.0,20.0,81,0.00,,OVC009,0.00,VWS V14.01,2013-06-24 18:17:00,
2013-06-24 13:22:00,76.0,70.5,29.65,ESE,119,7.0,20.0,83,0.00,,OVC009,0.00,VWS V14.01,2013-06-24 18:22:00,
2013-06-24 13:27:00,75.3,70.1,29.65,ESE,105,10.0,20.0,84,0.00,,OVC009,0.00,VWS V14.01,2013-06-24 18:27:00,
2013-06-24 13:32:00,74.9,70.8,29.65,SE,126,8.0,14.0,87,0.00,,OVC009,0.00,VWS V14.01,2013-06-24 18:32:00,
2013-06-24 13:37:00,74.9,70.8,29.65,SE,130,11.0,14.0,87,0.00,,OVC009,0.00,VWS V14.01,2013-06-24 18:37:00,
2013-06-24 13:42:00,74.9,70.8,29.65,ESE,122,12.0,14.0,87,0.00,,OVC009,0.00,VWS V14.01,2013-06-24 18:42:00,
2013-06-24 13:47:00,74.7,70.9,29.65,SE,133,1.0,14.0,88,0.00,,OVC009,0.00,VWS V14.01,2013-06-24 18:47:00,
2013-06-24 13:52:00,74.6,71.2,29.65,ESE,110,3.0,14.0,89,0.00,,OVC009,0.00,VWS V14.01,2013-06-24 18:52:00,
2013-06-24 13:57:00,74.2,71.4,29.65,ESE,109,5.0,14.0,91,0.01,,OVC009,0.01,VWS V14.01,2013-06-24 18:57:00,
2013-06-24 14:02:00,74.0,71.5,29.64,ESE,108,7.0,10.0,92,0.01,,OVC009,0.01,VWS V14.01,2013-06-24 19:02:00,
2013-06-24 14:07:00,73.7,71.6,29.64,ENE,67,2.0,12.0,93,0.01,,OVC009,0.01,VWS V14.01,2013-06-24 19:07:00,
2013-06-24 14:13:00,73.7,71.6,29.64,East,96,2.0,12.0,93,0.01,,OVC009,0.01,VWS V14.01,2013-06-24 19:13:00,
2013-06-24 14:18:00,73.9,72.1,29.63,East,96,0.0,12.0,94,0.01,,OVC009,0.01,VWS V14.01,2013-06-24 19:18:00,
2013-06-24 14:23:00,73.9,71.8,29.63,East,98,0.0,12.0,93,0.01,,OVC009,0.01,VWS V14.01,2013-06-24 19:23:00,
2013-06-24 14:28:00,74.0,71.5,29.63,East,101,0.0,12.0,92,0.01,,OVC009,0.01,VWS V14.01,2013-06-24 19:28:00,
2013-06-24 14:33:00,74.0,71.5,29.62,SE,133,8.0,10.0,92,0.01,,OVC009,0.01,VWS V14.01,2013-06-24 19:33:00,
2013-06-24 14:38:00,73.9,71.4,29.62,ESE,118,7.0,12.0,92,0.01,,OVC009,0.01,VWS V14.01,2013-06-24 19:38:00,
2013-06-24 14:43:00,74.0,71.2,29.62,ESE,110,8.0,12.0,91,0.01,,OVC009,0.01,VWS V14.01,2013-06-24 19:43:00,
2013-06-24 14:48:00,74.4,71.6,29.60,ESE,115,7.0,12.0,91,0.01,,OVC009,0.01,VWS V14.01,2013-06-24 19:48:00,
2013-06-24 14:53:00,74.6,71.5,29.60,SE,126,12.0,17.0,90,0.01,,OVC009,0.01,VWS V14.01,2013-06-24 19:53:00,
2013-06-24 14:58:00,74.9,71.4,29.60,SE,127,8.0,17.0,89,0.01,,OVC009,0.01,VWS V14.01,2013-06-24 19:58:00,
2013-06-24 15:03:00,75.3,71.5,29.58,ESE,108,3.0,14.0,88,0.00,,OVC009,0.01,VWS V14.01,2013-06-24 20:03:00,
2013-06-24 15:08:00,75.8,71.7,29.58,SE,146,12.0,14.0,87,0.00,,OVC009,0.01,VWS V14.01,2013-06-24 20:08:00,
2013-06-24 15:14:00,76.0,70.5,29.58,SE,134,2.0,19.0,83,0.00,,OVC009,0.01,VWS V14.01,2013-06-24 20:14:00,
2013-06-24 15:19:00,76.0,70.5,29.58,ESE,119,11.0,19.0,83,0.00,,OVC009,0.01,VWS V14.01,2013-06-24 20:19:00,
2013-06-24 15:24:00,75.8,70.3,29.58,SSE,149,9.0,19.0,83,0.00,,OVC009,0.01,VWS V14.01,2013-06-24 20:24:00,
2013-06-24 15:29:00,75.4,69.2,29.58,SE,142,8.0,19.0,81,0.00,,OVC009,0.01,VWS V14.01,2013-06-24 20:29:00,
2013-06-24 15:34:00,74.7,68.1,29.60,South,175,7.0,14.0,80,0.00,,OVC009,0.01,VWS V14.01,2013-06-24 20:34:00,
2013-06-24 15:39:00,74.4,68.2,29.60,SE,143,3.0,14.0,81,0.00,,OVC009,0.01,VWS V14.01,2013-06-24 20:39:00,
2013-06-24 15:44:00,74.6,68.4,29.61,SW,233,0.0,14.0,81,0.00,,OVC009,0.01,VWS V14.01,2013-06-24 20:44:00,
2013-06-24 15:49:00,74.6,68.4,29.61,SE,126,0.0,14.0,81,0.00,,OVC009,0.01,VWS V14.01,2013-06-24 20:49:00,
2013-06-24 15:54:00,74.6,68.8,29.61,SW,236,4.0,14.0,82,0.00,,OVC009,0.01,VWS V14.01,2013-06-24 20:54:00,
2013-06-24 15:59:00,74.6,68.8,29.61,SSE,154,0.0,14.0,82,0.00,,OVC009,0.01,VWS V14.01,2013-06-24 20:59:00,
2013-06-24 16:04:00,74.6,69.1,29.61,SSE,157,2.0,5.0,83,0.00,,OVC009,0.01,VWS V14.01,2013-06-24 21:04:00,
2013-06-24 16:09:00,74.6,69.1,29.61,ESE,108,1.0,5.0,83,0.00,,OVC009,0.01,VWS V14.01,2013-06-24 21:09:00,
2013-06-24 16:14:00,74.6,69.1,29.61,ESE,108,1.0,5.0,83,0.00,,OVC009,0.01,VWS V14.01,2013-06-24 21:14:00,
2013-06-24 16:19:00,74.6,69.1,29.61,SE,127,2.0,5.0,83,0.00,,OVC009,0.01,VWS V14.01,2013-06-24 21:19:00,
2013-06-24 16:24:00,74.2,67.6,29.61,SW,229,1.0,6.0,80,0.00,,OVC009,0.01,VWS V14.01,2013-06-24 21:24:00,
2013-06-24 16:29:00,74.2,67.3,29.61,SSW,209,1.0,6.0,79,0.00,,OVC009,0.01,VWS V14.01,2013-06-24 21:29:00,
2013-06-24 16:34:00,74.0,66.7,29.61,SSE,153,1.0,6.0,78,0.00,,OVC009,0.01,VWS V14.01,2013-06-24 21:34:00,
2013-06-24 16:39:00,73.9,66.2,29.61,SSE,167,0.0,6.0,77,0.00,,OVC009,0.01,VWS V14.01,2013-06-24 21:39:00,
2013-06-24 16:45:00,73.7,66.1,29.60,SSE,167,1.0,10.0,77,0.00,,OVC009,0.01,VWS V14.01,2013-06-24 21:45:00,
2013-06-24 16:50:00,73.7,66.4,29.60,SSE,167,0.0,10.0,78,0.00,,OVC009,0.01,VWS V14.01,2013-06-24 21:50:00,
2013-06-24 16:55:00,73.9,66.6,29.60,SSE,167,0.0,10.0,78,0.00,,OVC009,0.01,VWS V14.01,2013-06-24 21:55:00,
2013-06-24 17:00:00,74.0,66.7,29.61,SSE,167,0.0,10.0,78,0.00,,OVC009,0.01,VWS V14.01,2013-06-24 22:00:00,
2013-06-24 17:05:00,74.0,66.0,29.61,SSE,167,0.0,0.0,76,0.00,,OVC009,0.01,VWS V14.01,2013-06-24 22:05:00,
2013-06-24 17:10:00,74.2,66.5,29.61,SSE,167,0.0,0.0,77,0.00,,OVC009,0.01,VWS V14.01,2013-06-24 22:10:00,
2013-06-24 17:15:00,74.2,66.9,29.61,SSE,167,0.0,0.0,78,0.00,,OVC009,0.01,VWS V14.01,2013-06-24 22:15:00,
2013-06-24 17:20:00,74.4,66.3,29.61,SSE,167,0.0,2.0,76,0.00,,OVC009,0.01,VWS V14.01,2013-06-24 22:20:00,
2013-06-24 17:25:00,74.7,67.0,29.61,SSE,167,0.0,2.0,77,0.00,,OVC009,0.01,VWS V14.01,2013-06-24 22:25:00,
2013-06-24 17:30:00,74.7,66.6,29.61,South,185,0.0,0.0,76,0.00,,OVC009,0.01,VWS V14.01,2013-06-24 22:30:00,
2013-06-24 17:36:00,74.9,67.6,29.61,South,185,0.0,0.0,78,0.00,,OVC009,0.01,VWS V14.01,2013-06-24 22:36:00,
2013-06-24 17:41:00,74.9,66.8,29.61,South,185,0.0,1.0,76,0.00,,OVC009,0.01,VWS V14.01,2013-06-24 22:41:00,
2013-06-24 17:46:00,74.9,66.4,29.61,South,185,0.0,1.0,75,0.00,,OVC009,0.01,VWS V14.01,2013-06-24 22:46:00,
2013-06-24 17:51:00,75.1,66.2,29.61,South,185,0.0,1.0,74,0.00,,OVC009,0.01,VWS V14.01,2013-06-24 22:51:00,
2013-06-24 17:56:00,75.1,66.2,29.61,South,184,0.0,2.0,74,0.00,,OVC009,0.01,VWS V14.01,2013-06-24 22:56:00,
2013-06-24 18:01:00,75.4,66.5,29.61,SSE,160,0.0,0.0,74,0.00,,OVC009,0.01,VWS V14.01,2013-06-24 23:01:00,
2013-06-24 18:06:00,75.6,66.7,29.61,SSE,160,0.0,3.0,74,0.00,,OVC009,0.01,VWS V14.01,2013-06-24 23:06:00,
2013-06-24 18:11:00,75.6,66.7,29.61,SSE,160,1.0,3.0,74,0.00,,OVC009,0.01,VWS V14.01,2013-06-24 23:11:00,
2013-06-24 18:16:00,75.6,67.1,29.61,SSE,160,2.0,3.0,75,0.00,,OVC009,0.01,VWS V14.01,2013-06-24 23:16:00,
2013-06-24 18:21:00,75.6,66.3,29.61,ESE,123,2.0,3.0,73,0.00,,OVC009,0.01,VWS V14.01,2013-06-24 23:21:00,
2013-06-24 18:27:00,75.6,66.7,29.61,ESE,122,2.0,5.0,74,0.00,,OVC009,0.01,VWS V14.01,2013-06-24 23:27:00,
2013-06-24 18:32:00,75.3,66.8,29.62,ESE,122,5.0,8.0,75,0.00,,OVC009,0.01,VWS V14.01,2013-06-24 23:32:00,
2013-06-24 18:37:00,74.7,67.0,29.62,SE,125,2.0,8.0,77,0.00,,OVC009,0.01,VWS V14.01,2013-06-24 23:37:00,
2013-06-24 18:42:00,74.6,66.9,29.62,ESE,116,6.0,8.0,77,0.00,,OVC009,0.01,VWS V14.01,2013-06-24 23:42:00,
2013-06-24 18:47:00,74.4,66.7,29.62,ESE,123,2.0,8.0,77,0.00,,OVC009,0.01,VWS V14.01,2013-06-24 23:47:00,
2013-06-24 18:52:00,74.4,67.1,29.62,ESE,123,0.0,8.0,78,0.00,,OVC009,0.01,VWS V14.01,2013-06-24 23:52:00,
2013-06-24 18:57:00,74.2,66.9,29.62,ESE,123,0.0,8.0,78,0.00,,OVC009,0.01,VWS V14.01,2013-06-24 23:57:00,
2013-06-24 19:02:00,74.2,67.3,29.61,ESE,123,1.0,3.0,79,0.00,,OVC009,0.01,VWS V14.01,2013-06-25 00:02:00,
2013-06-24 19:08:00,74.2,67.3,29.61,ESE,123,0.0,3.0,79,0.00,,OVC009,0.01,VWS V14.01,2013-06-25 00:08:00,
2013-06-24 19:13:00,74.2,66.9,29.61,ESE,123,0.0,3.0,78,0.00,,OVC009,0.01,VWS V14.01,2013-06-25 00:13:00,
2013-06-24 19:18:00,74.0,66.3,29.61,ESE,119,3.0,6.0,77,0.00,,OVC009,0.01,VWS V14.01,2013-06-25 00:18:00,
2013-06-24 19:23:00,74.0,67.1,29.61,ESE,119,1.0,6.0,79,0.00,,OVC009,0.01,VWS V14.01,2013-06-25 00:23:00,
2013-06-24 19:28:00,74.0,67.1,29.61,ESE,119,2.0,6.0,79,0.00,,OVC009,0.01,VWS V14.01,2013-06-25 00:28:00,
2013-06-24 19:33:00,74.0,67.1,29.59,ESE,119,0.0,2.0,79,0.00,,OVC009,0.01,VWS V14.01,2013-06-25 00:33:00,
2013-06-24 19:38:00,73.9,67.0,29.59,ESE,119,2.0,7.0,79,0.00,,OVC009,0.01,VWS V14.01,2013-06-25 00:38:00,
2013-06-24 19:44:00,73.5,67.0,29.59,ESE,113,2.0,7.0,80,0.00,,OVC009,0.01,VWS V14.01,2013-06-25 00:44:00,
2013-06-24 19:49:00,73.3,66.8,29.59,ESE,112,4.0,8.0,80,0.00,,OVC009,0.01,VWS V14.01,2013-06-25 00:49:00,
2013-06-24 19:54:00,73.2,66.7,29.59,ESE,112,2.0,8.0,80,0.00,,OVC009,0.01,VWS V14.01,2013-06-25 00:54:00,
2013-06-24 19:59:00,73.0,66.5,29.59,ESE,112,2.0,8.0,80,0.00,,OVC009,0.01,VWS V14.01,2013-06-25 00:59:00,
2013-06-24 20:04:00,73.0,66.5,29.59,ESE,112,1.0,5.0,80,0.00,,OVC009,0.01,VWS V14.01,2013-06-25 01:04:00,
2013-06-24 20:09:00,72.8,66.3,29.59,ESE,112,1.0,5.0,80,0.00,,OVC009,0.01,VWS V14.01,2013-06-25 01:09:00,
2013-06-24 20:14:00,72.7,66.5,29.59,ESE,112,0.0,5.0,81,0.00,,OVC009,0.01,VWS V14.01,2013-06-25 01:14:00,
2013-06-24 20:19:00,72.7,66.9,29.59,ESE,112,1.0,5.0,82,0.00,,OVC009,0.01,VWS V14.01,2013-06-25 01:19:00,
2013-06-24 20:25:00,72.5,66.7,29.59,ESE,110,1.0,5.0,82,0.00,,OVC009,0.01,VWS V14.01,2013-06-25 01:25:00,
2013-06-24 20:30:00,72.3,66.8,29.60,ESE,110,1.0,5.0,83,0.00,,OVC009,0.01,VWS V14.01,2013-06-25 01:30:00,
2013-06-24 20:35:00,72.1,66.7,29.60,ESE,110,0.0,2.0,83,0.00,,OVC009,0.01,VWS V14.01,2013-06-25 01:35:00,
2013-06-24 20:40:00,71.8,66.7,29.60,ESE,110,2.0,6.0,84,0.00,,OVC009,0.01,VWS V14.01,2013-06-25 01:40:00,
2013-06-24 20:45:00,71.8,66.7,29.59,ESE,110,1.0,6.0,84,0.00,,OVC009,0.01,VWS V14.01,2013-06-25 01:45:00,
2013-06-24 20:50:00,71.6,66.9,29.59,ESE,110,1.0,6.0,85,0.00,,OVC009,0.01,VWS V14.01,2013-06-25 01:50:00,
2013-06-24 20:55:00,71.5,66.8,29.59,ESE,110,0.0,6.0,85,0.00,,OVC009,0.01,VWS V14.01,2013-06-25 01:55:00,
2013-06-24 21:00:00,71.3,66.9,29.59,ESE,110,1.0,6.0,86,0.00,,OVC009,0.01,VWS V14.01,2013-06-25 02:00:00,
2013-06-24 21:05:00,71.1,67.0,29.59,ESE,109,1.0,3.0,87,0.00,,OVC009,0.01,VWS V14.01,2013-06-25 02:05:00,
2013-06-24 21:10:00,70.9,66.8,29.59,East,98,1.0,3.0,87,0.00,,OVC009,0.01,VWS V14.01,2013-06-25 02:10:00,
2013-06-24 21:15:00,70.9,66.8,29.58,East,96,5.0,5.0,87,0.00,,OVC009,0.01,VWS V14.01,2013-06-25 02:15:00,
2013-06-24 21:20:00,70.8,66.7,29.58,East,95,1.0,5.0,87,0.00,,OVC009,0.01,VWS V14.01,2013-06-25 02:20:00,
2013-06-24 21:25:00,70.6,66.6,29.58,East,94,0.0,5.0,87,0.00,,OVC009,0.01,VWS V14.01,2013-06-25 02:25:00,
2013-06-24 21:30:00,70.6,66.6,29.58,East,94,1.0,1.0,87,0.00,,OVC009,0.01,VWS V14.01,2013-06-25 02:30:00,
2013-06-24 21:35:00,70.4,66.3,29.58,East,92,1.0,3.0,87,0.00,,OVC009,0.01,VWS V14.01,2013-06-25 02:35:00,
2013-06-24 21:41:00,70.4,66.3,29.58,East,92,0.0,3.0,87,0.00,,OVC009,0.01,VWS V14.01,2013-06-25 02:41:00,
2013-06-24 21:46:00,70.3,66.2,29.58,East,91,1.0,3.0,87,0.00,,OVC009,0.01,VWS V14.01,2013-06-25 02:46:00,
2013-06-24 21:51:00,69.9,66.2,29.58,East,91,2.0,5.0,88,0.00,,OVC009,0.01,VWS V14.01,2013-06-25 02:51:00,
2013-06-24 21:56:00,69.8,65.8,29.58,East,91,0.0,5.0,87,0.00,,OVC009,0.01,VWS V14.01,2013-06-25 02:56:00,
2013-06-24 22:01:00,69.6,65.6,29.59,East,91,1.0,2.0,87,0.00,,OVC009,0.01,VWS V14.01,2013-06-25 03:01:00,
2013-06-24 22:07:00,69.4,66.0,29.59,East,91,1.0,2.0,89,0.00,,OVC009,0.01,VWS V14.01,2013-06-25 03:07:00,
2013-06-24 22:12:00,69.3,65.9,29.59,East,91,0.0,2.0,89,0.00,,OVC009,0.01,VWS V14.01,2013-06-25 03:12:00,
2013-06-24 22:17:00,69.1,65.7,29.60,East,91,0.0,2.0,89,0.00,,OVC009,0.01,VWS V14.01,2013-06-25 03:17:00,
2013-06-24 22:22:00,69.1,65.7,29.60,East,91,0.0,2.0,89,0.00,,OVC009,0.01,VWS V14.01,2013-06-25 03:22:00,
2013-06-24 22:27:00,68.9,65.8,29.60,East,91,0.0,2.0,90,0.00,,OVC009,0.01,VWS V14.01,2013-06-25 03:27:00,
2013-06-24 22:33:00,68.8,65.8,29.60,East,91,0.0,0.0,90,0.00,,OVC009,0.01,VWS V14.01,2013-06-25 03:33:00,
2013-06-24 22:38:00,68.8,65.8,29.60,East,91,0.0,0.0,90,0.00,,OVC009,0.01,VWS V14.01,2013-06-25 03:38:00,
2013-06-24 22:43:00,68.6,65.6,29.60,East,91,0.0,1.0,90,0.00,,OVC009,0.01,VWS V14.01,2013-06-25 03:43:00,
2013-06-24 22:48:00,68.3,65.6,29.61,East,91,1.0,6.0,91,0.00,,OVC009,0.01,VWS V14.01,2013-06-25 03:48:00,
2013-06-24 22:53:00,68.4,65.4,29.61,East,91,1.0,6.0,90,0.00,,OVC009,0.01,VWS V14.01,2013-06-25 03:53:00,
2013-06-24 22:59:00,68.3,65.3,29.61,East,91,2.0,6.0,90,0.00,,OVC009,0.01,VWS V14.01,2013-06-25 03:59:00,
2013-06-24 23:01:00,68.3,65.3,29.61,East,91,2.0,3.0,90,0.00,,OVC009,0.01,VWS V14.01,2013-06-25 04:01:00,
2013-06-24 23:06:00,68.1,65.4,29.61,East,92,5.0,6.0,91,0.00,,OVC009,0.01,VWS V14.01,2013-06-25 04:06:00,
2013-06-24 23:11:00,68.1,65.4,29.61,East,92,6.0,8.0,91,0.00,,OVC009,0.01,VWS V14.01,2013-06-25 04:11:00,
2013-06-24 23:16:00,68.3,65.6,29.61,East,94,2.0,8.0,91,0.00,,OVC009,0.01,VWS V14.01,2013-06-25 04:16:00,
2013-06-24 23:21:00,68.3,65.6,29.61,East,95,2.0,8.0,91,0.00,,OVC009,0.01,VWS V14.01,2013-06-25 04:21:00,
2013-06-24 23:26:00,68.3,65.3,29.61,East,95,2.0,8.0,90,0.00,,OVC009,0.01,VWS V14.01,2013-06-25 04:26:00,
2013-06-24 23:31:00,68.3,65.6,29.61,East,96,6.0,7.0,91,0.00,,OVC009,0.01,VWS V14.01,2013-06-25 04:31:00,
2013-06-24 23:36:00,68.1,65.4,29.61,East,96,4.0,7.0,91,0.00,,OVC009,0.01,VWS V14.01,2013-06-25 04:36:00,
2013-06-24 23:41:00,67.9,65.2,29.61,East,96,5.0,7.0,91,0.00,,OVC009,0.01,VWS V14.01,2013-06-25 04:41:00,
2013-06-24 23:46:00,67.9,65.2,29.61,East,96,3.0,7.0,91,0.00,,OVC009,0.01,VWS V14.01,2013-06-25 04:46:00,
2013-06-24 23:51:00,67.9,65.2,29.61,East,96,5.0,7.0,91,0.00,,OVC009,0.01,VWS V14.01,2013-06-25 04:51:00,
2013-06-24 23:56:00,67.9,64.9,29.61,East,96,6.0,7.0,90,0.00,,OVC009,0.01,VWS V14.01,2013-06-25 04:56:00,